Hourly Data Report for January 02, 2017

TORONTO CITY
ONTARIO

43°40'00.000" N
79°24'00.000" W
112.50 m
6158355
71508
XTO

Download Data

Hourly Data (January 2017)
Hourly Data Report for January 2, 2017
TIME
LST
Temp Definition
°C
Dew Point Definition
°C
Rel Hum Definition
%
Precip. Amount Definition
mm

Wind Dir Definition
10's deg

Wind Spd Definition
km/h
Visibility Definition
km
Stn Press Definition
kPa
Hmdx Definition


Wind Chill Definition


Weather Definition


00:00 0.5 -3.4 75 0.0 LegendMM LegendMM   101.26     LegendNANA
01:00 0.8 -3.3 74 0.0 LegendMM LegendMM   101.28     LegendNANA
02:00 1.2 -3.3 72 0.0 LegendMM LegendMM   101.29     LegendNANA
03:00 1.1 -3.3 72 0.0 LegendMM LegendMM   101.33     LegendNANA
04:00 1.2 -2.8 75 0.0 LegendMM LegendMM   101.29     LegendNANA
05:00 1.6 -1.5 80 0.0 LegendMM LegendMM   101.32     LegendNANA
06:00 2.3 0.3 86 0.0 LegendMM LegendMM   101.29     LegendNANA
07:00 2.9 -0.6 78 0.0 LegendMM LegendMM   101.30     LegendNANA
08:00 2.8 -0.6 78 0.0 LegendMM LegendMM   101.32     LegendNANA
09:00 1.3 -0.6 87 0.0 LegendMM LegendMM   101.29     LegendNANA
10:00 2.4 -0.1 83 0.0 LegendMM LegendMM   101.27     LegendNANA
11:00 3.7 1.2 84 0.0 LegendMM LegendMM   101.23     LegendNANA
12:00 4.7 0.0 71 0.0 LegendMM LegendMM   101.13     LegendNANA
13:00 5.2 -0.8 65 0.0 LegendMM LegendMM   101.06     LegendNANA
14:00 4.3 -0.4 71 0.0 LegendMM LegendMM   101.06     LegendNANA
15:00 4.3 -0.2 73 0.0 LegendMM LegendMM   101.07     LegendNANA
16:00 4.0 0.5 77 0.0 LegendMM LegendMM   100.96     LegendNANA
17:00 4.0 0.4 77 0.0 LegendMM LegendMM   100.90     LegendNANA
18:00 4.3 0.6 77 0.0 LegendMM LegendMM   100.94     LegendNANA
19:00 4.3 0.9 78 0.0 LegendMM LegendMM   100.85     LegendNANA
20:00 4.3 1.8 84 0.0 LegendMM LegendMM   100.64     LegendNANA
21:00 4.5 2.2 85 0.0 LegendMM LegendMM   100.62     LegendNANA
22:00 4.4 2.6 88 0.0 LegendMM LegendMM   100.57     LegendNANA
23:00 4.0 2.8 92 0.0 LegendMM LegendMM   100.50     LegendNANA

Notes on Data Quality.

Legend

  • E = Estimated
  • M = Missing
  • NA = Not Available*
  • [empty] = Indicates an unobserved value
Date modified: